Time,TemperatureF,DewpointF,PressureIn,WindDirection,WindDirectionDegrees,WindSpeedMPH,WindSpeedGustMPH,Humidity,HourlyPrecipIn,Conditions,Clouds,dailyrainin,SoftwareType,DateUTC
2013-02-01 00:04:00,38.0,-99.9,-100.00,South,190,3.0,6.0,-999,-99.99,,,-99.99,,2013-02-01 05:04:00,
2013-02-01 00:12:00,38.0,-99.9,-100.00,South,190,3.0,6.0,-999,-99.99,,,-99.99,,2013-02-01 05:12:00,
2013-02-01 00:23:00,38.0,-99.9,-100.00,South,190,3.0,6.0,-999,-99.99,,,-99.99,,2013-02-01 05:23:00,
2013-02-01 00:32:00,38.0,-99.9,-100.00,South,190,3.0,6.0,-999,-99.99,,,-99.99,,2013-02-01 05:32:00,
2013-02-01 00:40:00,37.0,-99.9,-100.00,South,180,5.0,7.0,-999,-99.99,,,-99.99,,2013-02-01 05:40:00,
2013-02-01 01:02:00,37.0,-99.9,-100.00,South,180,5.0,7.0,-999,-99.99,,,-99.99,,2013-02-01 06:02:00,
2013-02-01 01:12:00,37.0,-99.9,-100.00,South,180,5.0,7.0,-999,-99.99,,,-99.99,,2013-02-01 06:12:00,
2013-02-01 01:22:00,37.0,-99.9,-100.00,South,180,5.0,7.0,-999,-99.99,,,-99.99,,2013-02-01 06:22:00,
2013-02-01 01:32:00,37.0,-99.9,-100.00,South,180,5.0,7.0,-999,-99.99,,,-99.99,,2013-02-01 06:32:00,
2013-02-01 01:40:00,37.0,-99.9,-100.00,South,180,5.0,6.0,-999,-99.99,,,-99.99,,2013-02-01 06:40:00,
2013-02-01 02:02:00,37.0,-99.9,-100.00,South,180,5.0,6.0,-999,-99.99,,,-99.99,,2013-02-01 07:02:00,
2013-02-01 02:12:00,37.0,-99.9,-100.00,South,180,5.0,6.0,-999,-99.99,,,-99.99,,2013-02-01 07:12:00,
2013-02-01 02:22:00,37.0,-99.9,-100.00,South,180,5.0,6.0,-999,-99.99,,,-99.99,,2013-02-01 07:22:00,
2013-02-01 02:32:00,37.0,-99.9,-100.00,South,180,5.0,6.0,-999,-99.99,,,-99.99,,2013-02-01 07:32:00,
2013-02-01 02:40:00,37.0,-99.9,-100.00,South,180,7.0,8.0,-999,-99.99,,,-99.99,,2013-02-01 07:40:00,
2013-02-01 03:02:00,37.0,-99.9,-100.00,South,180,7.0,8.0,-999,-99.99,,,-99.99,,2013-02-01 08:02:00,
2013-02-01 03:11:00,37.0,-99.9,-100.00,South,180,7.0,8.0,-999,-99.99,,,-99.99,,2013-02-01 08:11:00,
2013-02-01 03:22:00,37.0,-99.9,-100.00,South,180,7.0,8.0,-999,-99.99,,,-99.99,,2013-02-01 08:22:00,
2013-02-01 03:32:00,37.0,-99.9,-100.00,South,180,7.0,8.0,-999,-99.99,,,-99.99,,2013-02-01 08:32:00,
2013-02-01 03:40:00,40.0,-99.9,-100.00,South,180,3.0,15.0,-999,-99.99,,,-99.99,,2013-02-01 08:40:00,
2013-02-01 04:02:00,40.0,-99.9,-100.00,South,180,3.0,15.0,-999,-99.99,,,-99.99,,2013-02-01 09:02:00,
2013-02-01 04:11:00,40.0,-99.9,-100.00,South,180,3.0,15.0,-999,-99.99,,,-99.99,,2013-02-01 09:11:00,
2013-02-01 04:22:00,40.0,-99.9,-100.00,South,180,3.0,15.0,-999,-99.99,,,-99.99,,2013-02-01 09:22:00,
2013-02-01 04:32:00,40.0,-99.9,-100.00,South,180,3.0,15.0,-999,-99.99,,,-99.99,,2013-02-01 09:32:00,
2013-02-01 04:40:00,44.0,-99.9,-100.00,ESE,110,2.0,15.0,-999,-99.99,,,-99.99,,2013-02-01 09:40:00,
2013-02-01 05:01:00,44.0,-99.9,-100.00,ESE,110,2.0,15.0,-999,-99.99,,,-99.99,,2013-02-01 10:01:00,
2013-02-01 05:11:00,44.0,-99.9,-100.00,ESE,110,2.0,15.0,-999,-99.99,,,-99.99,,2013-02-01 10:11:00,
2013-02-01 05:21:00,44.0,-99.9,-100.00,ESE,110,2.0,15.0,-999,-99.99,,,-99.99,,2013-02-01 10:21:00,
2013-02-01 05:32:00,44.0,-99.9,-100.00,ESE,110,2.0,15.0,-999,-99.99,,,-99.99,,2013-02-01 10:32:00,
2013-02-01 05:40:00,44.0,-99.9,-100.00,SW,220,5.0,15.0,-999,-99.99,,,-99.99,,2013-02-01 10:40:00,
2013-02-01 06:02:00,44.0,-99.9,-100.00,SW,220,5.0,15.0,-999,-99.99,,,-99.99,,2013-02-01 11:02:00,
2013-02-01 06:11:00,44.0,-99.9,-100.00,SW,220,5.0,15.0,-999,-99.99,,,-99.99,,2013-02-01 11:11:00,
2013-02-01 06:22:00,44.0,-99.9,-100.00,SW,220,5.0,15.0,-999,-99.99,,,-99.99,,2013-02-01 11:22:00,
2013-02-01 06:32:00,44.0,-99.9,-100.00,SW,220,5.0,15.0,-999,-99.99,,,-99.99,,2013-02-01 11:32:00,
2013-02-01 06:40:00,43.0,-99.9,-100.00,SSW,200,2.0,14.0,-999,-99.99,,,-99.99,,2013-02-01 11:40:00,
2013-02-01 07:03:00,43.0,-99.9,-100.00,SSW,200,2.0,14.0,-999,-99.99,,,-99.99,,2013-02-01 12:03:00,
2013-02-01 07:12:00,43.0,-99.9,-100.00,SSW,200,2.0,14.0,-999,-99.99,,,-99.99,,2013-02-01 12:12:00,
2013-02-01 07:23:00,43.0,-99.9,-100.00,SSW,200,2.0,14.0,-999,-99.99,,,-99.99,,2013-02-01 12:23:00,
2013-02-01 07:32:00,43.0,-99.9,-100.00,SSW,200,2.0,14.0,-999,-99.99,,,-99.99,,2013-02-01 12:32:00,
2013-02-01 07:40:00,45.0,-99.9,-100.00,SW,230,10.0,21.0,-999,-99.99,,,-99.99,,2013-02-01 12:40:00,
2013-02-01 08:02:00,45.0,-99.9,-100.00,SW,230,10.0,21.0,-999,-99.99,,,-99.99,,2013-02-01 13:02:00,
2013-02-01 08:12:00,45.0,-99.9,-100.00,SW,230,10.0,21.0,-999,-99.99,,,-99.99,,2013-02-01 13:12:00,
2013-02-01 08:22:00,45.0,-99.9,-100.00,SW,230,10.0,21.0,-999,-99.99,,,-99.99,,2013-02-01 13:22:00,
2013-02-01 08:33:00,45.0,-99.9,-100.00,SW,230,10.0,21.0,-999,-99.99,,,-99.99,,2013-02-01 13:33:00,
2013-02-01 08:40:00,45.0,-99.9,-100.00,WSW,250,10.0,25.0,-999,-99.99,,,-99.99,,2013-02-01 13:40:00,
2013-02-01 09:04:00,45.0,-99.9,-100.00,WSW,250,10.0,25.0,-999,-99.99,,,-99.99,,2013-02-01 14:04:00,
2013-02-01 09:12:00,45.0,-99.9,-100.00,WSW,250,10.0,25.0,-999,-99.99,,,-99.99,,2013-02-01 14:12:00,
2013-02-01 09:22:00,45.0,-99.9,-100.00,WSW,250,10.0,25.0,-999,-99.99,,,-99.99,,2013-02-01 14:22:00,
2013-02-01 09:33:00,45.0,-99.9,-100.00,WSW,250,10.0,25.0,-999,-99.99,,,-99.99,,2013-02-01 14:33:00,
2013-02-01 09:40:00,45.0,-99.9,-100.00,West,280,21.0,34.0,-999,-99.99,,,-99.99,,2013-02-01 14:40:00,
2013-02-01 10:03:00,45.0,-99.9,-100.00,West,280,21.0,34.0,-999,-99.99,,,-99.99,,2013-02-01 15:03:00,
2013-02-01 10:12:00,45.0,-99.9,-100.00,West,280,21.0,34.0,-999,-99.99,,,-99.99,,2013-02-01 15:12:00,
2013-02-01 10:22:00,45.0,-99.9,-100.00,West,280,21.0,34.0,-999,-99.99,,,-99.99,,2013-02-01 15:22:00,
2013-02-01 10:33:00,45.0,-99.9,-100.00,West,280,21.0,34.0,-999,-99.99,,,-99.99,,2013-02-01 15:33:00,
2013-02-01 10:40:00,44.0,-99.9,-100.00,West,280,22.0,29.0,-999,-99.99,,,-99.99,,2013-02-01 15:40:00,
2013-02-01 11:03:00,44.0,-99.9,-100.00,West,280,22.0,29.0,-999,-99.99,,,-99.99,,2013-02-01 16:03:00,
2013-02-01 11:12:00,44.0,-99.9,-100.00,West,280,22.0,29.0,-999,-99.99,,,-99.99,,2013-02-01 16:12:00,
2013-02-01 11:22:00,44.0,-99.9,-100.00,West,280,22.0,29.0,-999,-99.99,,,-99.99,,2013-02-01 16:22:00,
2013-02-01 11:33:00,44.0,-99.9,-100.00,West,280,22.0,29.0,-999,-99.99,,,-99.99,,2013-02-01 16:33:00,
2013-02-01 11:40:00,44.0,-99.9,-100.00,WNW,290,18.0,24.0,-999,-99.99,,,-99.99,,2013-02-01 16:40:00,
2013-02-01 12:03:00,44.0,-99.9,-100.00,WNW,290,18.0,24.0,-999,-99.99,,,-99.99,,2013-02-01 17:03:00,
2013-02-01 12:12:00,44.0,-99.9,-100.00,WNW,290,18.0,24.0,-999,-99.99,,,-99.99,,2013-02-01 17:12:00,
2013-02-01 12:22:00,44.0,-99.9,-100.00,WNW,290,18.0,24.0,-999,-99.99,,,-99.99,,2013-02-01 17:22:00,
2013-02-01 12:32:00,44.0,-99.9,-100.00,WNW,290,18.0,24.0,-999,-99.99,,,-99.99,,2013-02-01 17:32:00,
2013-02-01 12:40:00,45.0,-99.9,-100.00,WNW,300,20.0,28.0,-999,-99.99,,,-99.99,,2013-02-01 17:40:00,
2013-02-01 13:03:00,45.0,-99.9,-100.00,WNW,300,20.0,28.0,-999,-99.99,,,-99.99,,2013-02-01 18:03:00,
2013-02-01 13:13:00,45.0,-99.9,-100.00,WNW,300,20.0,28.0,-999,-99.99,,,-99.99,,2013-02-01 18:13:00,
2013-02-01 13:23:00,45.0,-99.9,-100.00,WNW,300,20.0,28.0,-999,-99.99,,,-99.99,,2013-02-01 18:23:00,
2013-02-01 13:33:00,45.0,-99.9,-100.00,WNW,300,20.0,28.0,-999,-99.99,,,-99.99,,2013-02-01 18:33:00,
2013-02-01 13:40:00,45.0,-99.9,-100.00,West,280,15.0,20.0,-999,-99.99,,,-99.99,,2013-02-01 18:40:00,
2013-02-01 14:03:00,45.0,-99.9,-100.00,West,280,15.0,20.0,-999,-99.99,,,-99.99,,2013-02-01 19:03:00,
2013-02-01 14:12:00,45.0,-99.9,-100.00,West,280,15.0,20.0,-999,-99.99,,,-99.99,,2013-02-01 19:12:00,
2013-02-01 14:22:00,45.0,-99.9,-100.00,West,280,15.0,20.0,-999,-99.99,,,-99.99,,2013-02-01 19:22:00,
2013-02-01 14:33:00,45.0,-99.9,-100.00,West,280,15.0,20.0,-999,-99.99,,,-99.99,,2013-02-01 19:33:00,
2013-02-01 14:40:00,46.0,-99.9,-100.00,West,280,15.0,20.0,-999,-99.99,,,-99.99,,2013-02-01 19:40:00,
2013-02-01 15:02:00,46.0,-99.9,-100.00,West,280,15.0,20.0,-999,-99.99,,,-99.99,,2013-02-01 20:02:00,
2013-02-01 15:12:00,46.0,-99.9,-100.00,West,280,15.0,20.0,-999,-99.99,,,-99.99,,2013-02-01 20:12:00,
2013-02-01 15:22:00,46.0,-99.9,-100.00,West,280,15.0,20.0,-999,-99.99,,,-99.99,,2013-02-01 20:22:00,
2013-02-01 15:32:00,46.0,-99.9,-100.00,West,280,15.0,20.0,-999,-99.99,,,-99.99,,2013-02-01 20:32:00,
2013-02-01 15:40:00,47.0,-99.9,-100.00,West,280,14.0,18.0,-999,-99.99,,,-99.99,,2013-02-01 20:40:00,
2013-02-01 16:02:00,47.0,-99.9,-100.00,West,280,14.0,18.0,-999,-99.99,,,-99.99,,2013-02-01 21:02:00,
2013-02-01 16:12:00,47.0,-99.9,-100.00,West,280,14.0,18.0,-999,-99.99,,,-99.99,,2013-02-01 21:12:00,
2013-02-01 16:22:00,47.0,-99.9,-100.00,West,280,14.0,18.0,-999,-99.99,,,-99.99,,2013-02-01 21:22:00,
2013-02-01 16:32:00,47.0,-99.9,-100.00,West,280,14.0,18.0,-999,-99.99,,,-99.99,,2013-02-01 21:32:00,
2013-02-01 16:40:00,47.0,-99.9,-100.00,West,280,10.0,15.0,-999,-99.99,,,-99.99,,2013-02-01 21:40:00,
2013-02-01 17:03:00,47.0,-99.9,-100.00,West,280,10.0,15.0,-999,-99.99,,,-99.99,,2013-02-01 22:03:00,
2013-02-01 17:11:00,47.0,-99.9,-100.00,West,280,10.0,15.0,-999,-99.99,,,-99.99,,2013-02-01 22:11:00,
2013-02-01 17:22:00,47.0,-99.9,-100.00,West,280,10.0,15.0,-999,-99.99,,,-99.99,,2013-02-01 22:22:00,
2013-02-01 17:32:00,47.0,-99.9,-100.00,West,280,10.0,15.0,-999,-99.99,,,-99.99,,2013-02-01 22:32:00,
2013-02-01 17:40:00,47.0,-99.9,-100.00,West,270,13.0,18.0,-999,-99.99,,,-99.99,,2013-02-01 22:40:00,
2013-02-01 18:02:00,47.0,-99.9,-100.00,West,270,13.0,18.0,-999,-99.99,,,-99.99,,2013-02-01 23:02:00,
2013-02-01 18:11:00,47.0,-99.9,-100.00,West,270,13.0,18.0,-999,-99.99,,,-99.99,,2013-02-01 23:11:00,
2013-02-01 18:22:00,47.0,-99.9,-100.00,West,270,13.0,18.0,-999,-99.99,,,-99.99,,2013-02-01 23:22:00,
2013-02-01 18:32:00,47.0,-99.9,-100.00,West,270,13.0,18.0,-999,-99.99,,,-99.99,,2013-02-01 23:32:00,
2013-02-01 18:40:00,45.0,-99.9,-100.00,WNW,300,13.0,16.0,-999,-99.99,,,-99.99,,2013-02-01 23:40:00,
2013-02-01 19:02:00,45.0,-99.9,-100.00,WNW,300,13.0,16.0,-999,-99.99,,,-99.99,,2013-02-02 00:02:00,
2013-02-01 19:11:00,45.0,-99.9,-100.00,WNW,300,13.0,16.0,-999,-99.99,,,-99.99,,2013-02-02 00:11:00,
2013-02-01 19:22:00,45.0,-99.9,-100.00,WNW,300,13.0,16.0,-999,-99.99,,,-99.99,,2013-02-02 00:22:00,
2013-02-01 19:32:00,45.0,-99.9,-100.00,WNW,300,13.0,16.0,-999,-99.99,,,-99.99,,2013-02-02 00:32:00,
2013-02-01 19:40:00,44.0,-99.9,-100.00,WNW,290,13.0,15.0,-999,-99.99,,,-99.99,,2013-02-02 00:40:00,
2013-02-01 20:03:00,44.0,-99.9,-100.00,WNW,290,13.0,15.0,-999,-99.99,,,-99.99,,2013-02-02 01:03:00,
2013-02-01 20:11:00,44.0,-99.9,-100.00,WNW,290,13.0,15.0,-999,-99.99,,,-99.99,,2013-02-02 01:11:00,
2013-02-01 20:22:00,44.0,-99.9,-100.00,WNW,290,13.0,15.0,-999,-99.99,,,-99.99,,2013-02-02 01:22:00,
2013-02-01 20:32:00,44.0,-99.9,-100.00,WNW,290,13.0,15.0,-999,-99.99,,,-99.99,,2013-02-02 01:32:00,
2013-02-01 20:40:00,40.0,-99.9,-100.00,SW,230,2.0,9.0,-999,-99.99,,,-99.99,,2013-02-02 01:40:00,
2013-02-01 21:01:00,40.0,-99.9,-100.00,SW,230,2.0,9.0,-999,-99.99,,,-99.99,,2013-02-02 02:01:00,
2013-02-01 21:11:00,40.0,-99.9,-100.00,SW,230,2.0,9.0,-999,-99.99,,,-99.99,,2013-02-02 02:11:00,
2013-02-01 21:22:00,40.0,-99.9,-100.00,SW,230,2.0,9.0,-999,-99.99,,,-99.99,,2013-02-02 02:22:00,
2013-02-01 21:32:00,40.0,-99.9,-100.00,SW,230,2.0,9.0,-999,-99.99,,,-99.99,,2013-02-02 02:32:00,
2013-02-01 21:40:00,40.0,-99.9,-100.00,West,270,10.0,15.0,-999,-99.99,,,-99.99,,2013-02-02 02:40:00,
2013-02-01 22:02:00,40.0,-99.9,-100.00,West,270,10.0,15.0,-999,-99.99,,,-99.99,,2013-02-02 03:02:00,
2013-02-01 22:11:00,40.0,-99.9,-100.00,West,270,10.0,15.0,-999,-99.99,,,-99.99,,2013-02-02 03:11:00,
2013-02-01 22:22:00,40.0,-99.9,-100.00,West,270,10.0,15.0,-999,-99.99,,,-99.99,,2013-02-02 03:22:00,
2013-02-01 22:32:00,40.0,-99.9,-100.00,West,270,10.0,15.0,-999,-99.99,,,-99.99,,2013-02-02 03:32:00,
2013-02-01 22:40:00,39.0,-99.9,-100.00,West,280,13.0,20.0,-999,-99.99,,,-99.99,,2013-02-02 03:40:00,
2013-02-01 23:02:00,39.0,-99.9,-100.00,West,280,13.0,20.0,-999,-99.99,,,-99.99,,2013-02-02 04:02:00,
2013-02-01 23:11:00,39.0,-99.9,-100.00,West,280,13.0,20.0,-999,-99.99,,,-99.99,,2013-02-02 04:11:00,
2013-02-01 23:22:00,39.0,-99.9,-100.00,West,280,13.0,20.0,-999,-99.99,,,-99.99,,2013-02-02 04:22:00,
2013-02-01 23:33:00,39.0,-99.9,-100.00,West,280,13.0,20.0,-999,-99.99,,,-99.99,,2013-02-02 04:33:00,
2013-02-01 23:40:00,37.0,-99.9,-100.00,NW,320,13.0,16.0,-999,-99.99,,,-99.99,,2013-02-02 04:40:00,